User: anonymous   Login
Location: Bonn
(50.7330°N, 7.1000°E)
Time: 22:45:26
(UTC+02:00)
Language:

Iridium 84 - Orbit

View from above orbital plane
View from above orbital plane
View from above satellite
View from above satellite

Ground track
Ground track

The orbit data is extracted from the following two-line orbital elements,

1 25530U 98066D   17176.02870412 -.00000053 +00000-0 -26109-4 0  9992
2 25530 086.3943 346.6841 0002170 087.2409 272.9035 14.34215011978051
Epoch (UTC): 25 June 2017 00:41:20
Eccentricity: 0.0002170
inclination: 86.3943°
perigee height: 776 km
apogee height: 779 km
right ascension of ascending node: 346.6841°
argument of perigee: 87.2409°
revolutions per day: 14.34215011
mean anomaly at epoch: 272.9035°
orbit number at epoch: 97805

The dashed part of the orbit path shows where the satellite is in the earth's shadow,  

DLR